| time (UTC) | temp F | wind direction | speed MPH | gust MPH | rain 1hr in | rain 24hr in | rain mn in | humidity % | barometer mb |
| 20260508050053 | 40 | 0.0 | 0.0 | 0.00 | 0.00 | 0.00 | 91 | 1023.3 | |
| 20260508044552 | 39 | 0.0 | 0.0 | 0.00 | 0.00 | 0.00 | 91 | 1023.2 | |
| 20260508043048 | 38 | 0.0 | 0.0 | 0.00 | 0.00 | 0.00 | 90 | 1023.1 | |
| 20260508041555 | 37 | 0.0 | 0.0 | 0.00 | 0.00 | 0.00 | 90 | 1023.0 | |
| 20260508034555 | 36 | 0.0 | 0.0 | 0.00 | 0.00 | 0.00 | 89 | 1022.8 | |
| 20260508033053 | 36 | 0.0 | 0.0 | 0.00 | 0.00 | 0.00 | 89 | 1022.8 | |
| 20260508031551 | 36 | 0.0 | 0.0 | 0.00 | 0.00 | 0.00 | 89 | 1022.6 | |
| 20260508030108 | 36 | 0.0 | 0.0 | 0.00 | 0.00 | 0.00 | 89 | 1022.6 | |
| 20260508024601 | 37 | 0.0 | 0.0 | 0.00 | 0.00 | 0.00 | 89 | 1022.6 | |
| 20260508023054 | 37 | 0.0 | 0.0 | 0.00 | 0.00 | 0.00 | 89 | 1022.4 | |
| 20260508021556 | 37 | 0.0 | 0.0 | 0.00 | 0.00 | 0.00 | 88 | 1022.4 | |
| 20260508020055 | 37 | 0.0 | 0.0 | 0.00 | 0.00 | 0.00 | 88 | 1022.3 | |
| 20260508014553 | 37 | 0.0 | 0.0 | 0.00 | 0.00 | 0.00 | 88 | 1022.3 | |
| 20260508013055 | 38 | 0.0 | 0.0 | 0.00 | 0.00 | 0.00 | 88 | 1022.2 | |
| 20260508011602 | 38 | 0.0 | 0.0 | 0.00 | 0.00 | 0.00 | 88 | 1022.2 | |
| 20260508010059 | 38 | 0.0 | 0.0 | 0.00 | 0.00 | 0.00 | 88 | 1022.1 | |
| 20260508004605 | 39 | 0.0 | 0.0 | 0.00 | 0.00 | 0.00 | 87 | 1022.0 | |
| 20260508003108 | 39 | 0.0 | 0.0 | 0.00 | 0.00 | 0.00 | 87 | 1022.1 | |
| 20260508001555 | 39 | 0.0 | 0.0 | 0.00 | 0.00 | 0.00 | 87 | 1022.0 | |
| 20260508000054 | 40 | 0.0 | 0.0 | 0.00 | 0.00 | 0.00 | 87 | 1021.9 | |
| 20260507234551 | 40 | 0.0 | 0.0 | 0.00 | 0.00 | 0.00 | 86 | 1021.9 | |
| 20260507233053 | 40 | 0.0 | 0.0 | 0.00 | 0.00 | 0.00 | 85 | 1021.8 | |
| 20260507231608 | 41 | 0.0 | 0.0 | 0.00 | 0.00 | 0.00 | 85 | 1021.9 | |
| 20260507230056 | 41 | 0.0 | 0.0 | 0.00 | 0.00 | 0.00 | 85 | 1021.7 | |
| 20260507224603 | 41 | 0.0 | 0.0 | 0.00 | 0.00 | 0.00 | 84 | 1021.7 | |
| 20260507223053 | 42 | 0.0 | 0.0 | 0.00 | 0.00 | 0.00 | 83 | 1021.7 | |
| 20260507221556 | 42 | 0.0 | 0.0 | 0.00 | 0.00 | 0.00 | 83 | 1021.5 | |
| 20260507220054 | 43 | 0.0 | 0.0 | 0.00 | 0.00 | 0.00 | 82 | 1021.4 | |
| 20260507214604 | 43 | 0.0 | 0.0 | 0.00 | 0.00 | 0.00 | 81 | 1021.4 | |
| 20260507213107 | 44 | 0.0 | 0.0 | 0.00 | 0.00 | 0.00 | 81 | 1021.2 | |
| 20260507211549 | 45 | 0.0 | 0.0 | 0.00 | 0.00 | 0.00 | 81 | 1021.0 | |
| 20260507210054 | 45 | 0.0 | 0.0 | 0.00 | 0.00 | 0.00 | 80 | 1020.9 | |
| 20260507204559 | 46 | 0.0 | 0.0 | 0.00 | 0.00 | 0.00 | 79 | 1020.7 | |
| 20260507203053 | 46 | 0.0 | 0.0 | 0.00 | 0.00 | 0.00 | 80 | 1020.5 | |
| 20260507201553 | 47 | 0.0 | 0.0 | 0.00 | 0.00 | 0.00 | 77 | 1020.5 | |
| 20260507200049 | 49 | 0.0 | 0.0 | 0.00 | 0.00 | 0.00 | 75 | 1020.3 | |
| 20260507194548 | 50 | 0.0 | 0.0 | 0.00 | 0.00 | 0.00 | 73 | 1020.1 | |
| 20260507193106 | 51 | 0.0 | 0.0 | 0.00 | 0.00 | 0.00 | 72 | 1020.1 | |
| 20260507191554 | 51 | 0.0 | 0.0 | 0.00 | 0.00 | 0.00 | 69 | 1020.1 | |
| 20260507184553 | 52 | 0.0 | 0.0 | 0.00 | 0.00 | 0.00 | 58 | 1019.8 | |
| 20260507183058 | 53 | 0.0 | 0.0 | 0.00 | 0.00 | 0.00 | 56 | 1019.7 | |
| 20260507181553 | 54 | 0.0 | 0.0 | 0.00 | 0.00 | 0.00 | 53 | 1019.7 | |
| 20260507180103 | 55 | 0.0 | 0.0 | 0.00 | 0.00 | 0.00 | 51 | 1019.5 | |
| 20260507174552 | 56 | 0.0 | 0.0 | 0.00 | 0.00 | 0.00 | 49 | 1019.4 | |
| 20260507173054 | 57 | 0.0 | 0.0 | 0.00 | 0.00 | 0.00 | 49 | 1019.2 | |
| 20260507171602 | 57 | 0.0 | 0.0 | 0.00 | 0.00 | 0.00 | 50 | 1019.0 | |
| 20260507170051 | 57 | 0.0 | 0.0 | 0.00 | 0.00 | 0.00 | 51 | 1019.0 | |
| 20260507164555 | 57 | 0.0 | 0.0 | 0.00 | 0.00 | 0.00 | 52 | 1018.8 | |
| 20260507163049 | 58 | 0.0 | 0.0 | 0.00 | 0.00 | 0.00 | 51 | 1018.7 | |
| 20260507161552 | 58 | 0.0 | 0.0 | 0.00 | 0.00 | 0.00 | 52 | 1018.6 | |
| 20260507160059 | 58 | 0.0 | 0.0 | 0.00 | 0.00 | 0.00 | 51 | 1018.7 | |
| 20260507154549 | 58 | 0.0 | 0.0 | 0.00 | 0.00 | 0.00 | 51 | 1018.6 | |
| 20260507153055 | 58 | 0.0 | 0.0 | 0.00 | 0.00 | 0.00 | 51 | 1018.7 | |
| 20260507151550 | 59 | 0.0 | 0.0 | 0.00 | 0.00 | 0.00 | 49 | 1018.6 | |
| 20260507150054 | 59 | 0.0 | 0.0 | 0.00 | 0.00 | 0.00 | 48 | 1018.5 | |
| 20260507144552 | 59 | 0.0 | 0.0 | 0.00 | 0.00 | 0.00 | 46 | 1018.4 | |
| 20260507143049 | 58 | 0.0 | 0.0 | 0.00 | 0.00 | 0.00 | 47 | 1018.4 | |
| 20260507141601 | 57 | 0.0 | 0.0 | 0.00 | 0.00 | 0.00 | 51 | 1018.4 | |
| 20260507140108 | 56 | 0.0 | 0.0 | 0.00 | 0.00 | 0.00 | 54 | 1018.4 | |
| 20260507134552 | 57 | 0.0 | 0.0 | 0.00 | 0.00 | 0.00 | 54 | 1018.4 | |
| 20260507133052 | 56 | 0.0 | 0.0 | 0.00 | 0.00 | 0.00 | 54 | 1018.5 | |
| 20260507131604 | 57 | 0.0 | 0.0 | 0.00 | 0.00 | 0.00 | 55 | 1018.5 | |
| 20260507130106 | 56 | 0.0 | 0.0 | 0.00 | 0.00 | 0.00 | 58 | 1018.5 | |
| 20260507124605 | 56 | 0.0 | 0.0 | 0.00 | 0.00 | 0.00 | 54 | 1018.4 | |
| 20260507123100 | 57 | 0.0 | 0.0 | 0.00 | 0.00 | 0.00 | 58 | 1018.3 | |
| 20260507121554 | 56 | 0.0 | 0.0 | 0.00 | 0.00 | 0.00 | 60 | 1018.2 | |
| 20260507120053 | 57 | 0.0 | 0.0 | 0.00 | 0.00 | 0.00 | 58 | 1018.2 | |
| 20260507114552 | 59 | 0.0 | 0.0 | 0.00 | 0.00 | 0.00 | 57 | 1018.1 | |
| 20260507113054 | 60 | 0.0 | 0.0 | 0.00 | 0.00 | 0.00 | 58 | 1017.9 | |
| 20260507111555 | 56 | 0.0 | 0.0 | 0.00 | 0.00 | 0.00 | 65 | 1018.1 | |
| 20260507110048 | 54 | 0.0 | 0.0 | 0.00 | 0.00 | 0.00 | 66 | 1018.2 | |
| 20260507104551 | 54 | 0.0 | 0.0 | 0.00 | 0.00 | 0.00 | 68 | 1018.1 | |
| 20260507103053 | 54 | 0.0 | 0.0 | 0.00 | 0.00 | 0.00 | 69 | 1018.2 | |
| 20260507101552 | 55 | 0.0 | 0.0 | 0.00 | 0.00 | 0.00 | 66 | 1018.1 | |
| 20260507100057 | 57 | 0.0 | 0.0 | 0.00 | 0.00 | 0.00 | 57 | 1018.0 | |
| 20260507094554 | 59 | 0.0 | 0.0 | 0.00 | 0.00 | 0.00 | 55 | 1017.7 | |
| 20260507093055 | 58 | 0.0 | 0.0 | 0.00 | 0.00 | 0.00 | 55 | 1017.7 | |
| 20260507091554 | 58 | 0.0 | 0.0 | 0.00 | 0.00 | 0.00 | 54 | 1017.8 | |
| 20260507090054 | 56 | 0.0 | 0.0 | 0.00 | 0.00 | 0.00 | 58 | 1017.7 | |
| 20260507084555 | 56 | 0.0 | 0.0 | 0.00 | 0.00 | 0.00 | 59 | 1017.8 | |
| 20260507083057 | 55 | 0.0 | 0.0 | 0.00 | 0.00 | 0.00 | 60 | 1017.6 | |
| 20260507081555 | 54 | 0.0 | 0.0 | 0.00 | 0.00 | 0.00 | 60 | 1017.6 | |
| 20260507080134 | 55 | 0.0 | 0.0 | 0.00 | 0.00 | 0.00 | 60 | 1017.4 | |
| 20260507074601 | 56 | 0.0 | 0.0 | 0.00 | 0.00 | 0.00 | 56 | 1017.4 | |
| 20260507073101 | 54 | 0.0 | 0.0 | 0.00 | 0.00 | 0.00 | 58 | 1017.2 | |
| 20260507071603 | 53 | 0.0 | 0.0 | 0.00 | 0.00 | 0.00 | 60 | 1017.3 | |
| 20260507070054 | 50 | 0.0 | 0.0 | 0.00 | 0.00 | 0.00 | 68 | 1017.2 | |
| 20260507064555 | 49 | 0.0 | 0.0 | 0.00 | 0.00 | 0.00 | 80 | 1017.1 | |
| 20260507063055 | 48 | 0.0 | 0.0 | 0.00 | 0.00 | 0.00 | 84 | 1017.1 | |
| 20260507061554 | 47 | 0.0 | 0.0 | 0.00 | 0.00 | 0.00 | 86 | 1017.0 | |
| 20260507060053 | 46 | 0.0 | 0.0 | 0.00 | 0.00 | 0.00 | 87 | 1017.0 | |
| 20260507054603 | 45 | 0.0 | 0.0 | 0.00 | 0.00 | 0.00 | 88 | 1016.9 | |
| 20260507053056 | 44 | 0.0 | 0.0 | 0.00 | 0.00 | 0.00 | 89 | 1016.7 | |
| 20260507051558 | 43 | 0.0 | 0.0 | 0.00 | 0.00 | 0.00 | 90 | 1016.7 |